Location: Unspecified
(50.1700°N, 6.8600°E)
Time: 12:36:31
(UTC+00:00)

OTV 5 (USA 277) - Visible Passes

Search period start: 16 October 2019 00:00
Search period end: 26 October 2019 00:00
Orbit: 310 x 324 km, 54.5° (Epoch: 08 October)

Date Brightness Start Highest point End Pass type
(mag) Time Alt. Az. Time Alt. Az. Time Alt. Az.
16 Oct ? 04:07:19 51° N 04:07:29 52° NNE 04:10:12 10° E visible
17 Oct ? 04:21:38 57° WNW 04:22:06 87° SSW 04:24:51 10° ESE visible
18 Oct ? 04:36:01 34° WSW 04:36:36 41° SW 04:39:13 10° SE visible
19 Oct ? 03:19:36 10° ESE 03:19:36 10° ESE 03:19:39 10° ESE visible
19 Oct ? 04:50:31 19° WSW 04:51:00 19° SW 04:53:04 10° S visible
